Regional Weather Roundup
Issued by NWS

Home | Current Version | Previous Version | Graphics & Text | Print | Product List | Glossary On
Versions: 1 2 3 4 5 6 7 8 9 10 11 12 13 14 15 16 17 18 19 20 21 22 23 24 25 26 27 28 29 30 31 32 33 34 35 36 37 38 39 40 41 42 43 44 45 46 47 48 49 50
000
ASUS43 KLOT 250803
RWRIL

ILLINOIS REGIONAL WEATHER ROUNDUP
NATIONAL WEATHER SERVICE CHICAGO/ROMEOVILLE IL
300 AM CDT SAT MAR 25 2017

NOTE: "FAIR" INDICATES FEW OR NO CLOUDS BELOW 12,000 FEET WITH NO
SIGNIFICANT WEATHER AND/OR OBSTRUCTIONS TO VISIBILITY.

* THESE STATIONS ARE NOT UNDER NWS QUALITY CONTROL. THEY ALSO MAY NOT
  REPORT WEATHER SUCH AS PRECIPITATION OR FOG.

ILZ001-002-007-009-015-016-024-250900-
NORTHWEST ILLINOIS

CITY           SKY/WX    TMP DP  RH WIND       PRES   REMARKS
MOLINE         CLOUDY    44  41  89 NE17      29.97F
STERLING*      LGT RAIN  41  39  93 E18       30.01F
SAVANNA*       CLOUDY    41  39  93 NE8       30.04F
$$

ILZ003-004-008-010-011-017-018-250900-
NORTH CENTRAL ILLINOIS

CITY           SKY/WX    TMP DP  RH WIND       PRES   REMARKS
ROCKFORD       LGT RAIN  41  37  86 NE12      30.07R FOG
FREEPORT*      LGT RAIN  38  37  97 NE14      30.07S WCI  30
ROCHELLE*      CLOUDY    40  38  95 NE13      30.04R
DE KALB*       CLOUDY    40  38  94 NE10      30.04S
PERU*          DRIZZLE   42  38  86 NE14      30.01F
$$

ILZ005-006-012>014-019>023-250900-
NORTHEAST ILLINOIS

CITY           SKY/WX    TMP DP  RH WIND       PRES   REMARKS
CHICAGO-OHARE  CLOUDY    41  37  86 NE13      30.06F
CHICAGO-MIDWAY LGT RAIN  41  38  89 N10       30.06F
AURORA         CLOUDY    43  38  82 NE12      30.03F
LANSING*       LGT RAIN  38  38 100 N8        30.07R WCI  32
JOLIET*        LGT RAIN  42  40  93 NE12      30.03F
WAUKEGAN       CLOUDY    37  36  96 N14G21    30.07F WCI  28
DUPAGE AIRPORT CLOUDY    41  39  93 NE13      30.04F
WHEELING       CLOUDY    39  38  96 N13       30.07F WCI  31
MORRIS*        LGT RAIN  42  39  91 NE6       30.03S
NORTHERLY ISL    N/A     39  36  89 N16         N/A  WCI  30
$$

LMZ740>746-250900-
SOUTHERN LAKE MICHIGAN

STATION/POSITION SKY/WX   TEMP    WIND        PRES    VSBY  WAVE
                          AIR SEA DIR/SP/G                  HT/PER
                          (F)     (DEG/KT/KT) (MB)    (MI)  (FT/S)
HARRISON CRIB                     350/ 17/ 19   N/A
BURNHAM HARBOR                    320/ 10/ 19   N/A
CALUMET HARBOR                    340/ 13/ 20 1017.7F
BURNS HARBOR               38     310/  9/ 12 1018.3S
MICHIGAN CITY              38     260/ 12/ 12   N/A
$$

ILZ025>027-034>036-040-047-049-050-058-095>099-250900-
WEST-CENTRAL ILLINOIS

CITY           SKY/WX    TMP DP  RH WIND       PRES   REMARKS
QUINCY         LGT RAIN  56  56 100 NE12      29.82F FOG
GALESBURG*     DRIZZLE   47  45  92 NE15G22     N/A
MACOMB*        LGT RAIN  55  54  96 NE14      29.91F
JACKSONVILLE*  LGT RAIN  60  58  94 SE10      29.86F
PITTSFIELD*    RAIN      59  58  98 E8        29.84F
$$

ILZ028>032-037-038-041>044-048-051>054-059>061-250900-
CENTRAL ILLINOIS

CITY           SKY/WX    TMP DP  RH WIND       PRES   REMARKS
PONTIAC        CLOUDY    46  46  97 NE17      29.99F FOG
BLOOMINGTON    LGT RAIN  48  46  93 NE12      29.97F FOG
DECATUR        CLOUDY    61  54  77 SE13      29.91F
PEORIA         RAIN      50  49  96 E13       29.94F FOG
SPRINGFIELD    HVY RAIN  61  58  90 SE6       29.91F FOG
TAYLORVILLE    NOT AVBL
$$

ILZ033-039-045-046-055>057-062-063-250900-
EAST-CENTRAL ILLINOIS

CITY           SKY/WX    TMP DP  RH WIND       PRES   REMARKS
CHAMPAIGN      CLOUDY    59  54  83 E8        29.94F
RANTOUL*       CLOUDY    60  57  88 SE6       29.96F
MATTOON        PTCLDY    63  54  72 SE14      29.93F
PARIS*         MOCLDY    61  54  76 SE13      29.98F
$$

ILZ079-100>102-250900-
SOUTHWEST ILLINOIS

CITY           SKY/WX    TMP DP  RH WIND       PRES   REMARKS
BELLEVILLE     LGT RAIN  61  61  99 CALM      29.83F
CAHOKIA*       HVY RAIN  59  57  93 CALM      29.86F FOG
SPARTA*        CLOUDY    66  56  70 SE16G22   29.84F
$$

ILZ064>066-069>071-074>076-080>082-084>086-088>090-092>094-250900-
SOUTH-CENTRAL ILLINOIS

CITY           SKY/WX    TMP DP  RH WIND       PRES   REMARKS
CARBONDALE     PTCLDY    65  57  75 SE18      29.86F
CAIRO*         CLOUDY    66  57  72 SE21      29.89F
EFFINGHAM*     CLOUDY    63  55  76 E12       29.93F
MARION         CLOUDY    66  57  72 SE15G23   29.89F
MT. VERNON     CLOUDY    64  55  72 SE9       29.90F
CENTRALIA*     PTCLDY    66  56  71 SE15      29.87F
SALEM*         CLOUDY    64  54  69 SE9       29.90F
$$

ILZ067-068-072-073-078-083-087-091-250900-
SOUTHEAST ILLINOIS

CITY           SKY/WX    TMP DP  RH WIND       PRES   REMARKS
LAWRENCEVILLE  PTCLDY    64  54  69 S16       29.97F
FLORA*         MOCLDY    64  55  72 SE15      29.93F
FAIRFIELD*     CLOUDY    63  55  74 SE9       29.92F
HARRISBURG*    CLOUDY    65  56  72 SE15G23   29.93F
ROBINSON*      PTCLDY    62  53  72 SE9       29.98F
CARMI*         CLOUDY    60  55  82 SE12      29.95F
$$

ABBREVIATIONS USED IN REMARKS
   TC - TEMPERATURE IN CELSIUS
  WCI - WIND CHILL INDEX
   HX - HEAT INDEX
  VSB - VISIBILITY
$$





USA.gov is the U.S. government's official web portal to all federal, state and local government web resources and services.